Weather observations for the past three days for
Lewisburg / Greenbrier
| Date | Time (edt) | Wind (mph) | Vis. (mi.) | Weather | Sky Cond. | Temperature (ºF) | Relative Humidity | Wind Chill (°F) | Heat Index (°F) | Pressure | Precipitation (in) | ||||||
|---|---|---|---|---|---|---|---|---|---|---|---|---|---|---|---|---|---|
| Air | Dwpt | 6 hour | altimeter (in) | sea level (mb) | 1 hr | 3 hr | 6 hr | ||||||||||
| Max. | Min. | ||||||||||||||||
| 09 | 07:55 | Calm | 10.00 | Fair | CLR | 42.8 | 41 | 44.4 | 37.4 | 93% | 29.9 | 0.0 | |||||
| 09 | 07:35 | Calm | 10.00 | Fair | CLR | 41 | 39.2 | 93% | 29.9 | 0.0 | |||||||
| 09 | 07:15 | E 1 | 10.00 | Fair | CLR | 39.2 | 37.4 | 93% | 29.9 | 0.0 | |||||||
| 09 | 06:55 | N 3 | 10.00 | Fair | CLR | 37.4 | 37.4 | 100% | 29.89 | 0.0 | |||||||
| 09 | 06:35 | N 3 | 10.00 | Fair | CLR | 39.2 | 37.4 | 93% | 29.89 | 0.0 | |||||||
| 09 | 06:15 | NE 3 | 10.00 | Fair | CLR | 39.2 | 37.4 | 93% | 29.88 | 0.0 | |||||||
| 09 | 05:55 | N 2 | 10.00 | Fair | CLR | 39.2 | 37.4 | 93% | 29.88 | 0.0 | |||||||
| 09 | 05:35 | Calm | 10.00 | Fair | CLR | 41 | 37.4 | 87% | 29.89 | 0.0 | |||||||
| 09 | 05:15 | N 2 | 10.00 | Fair | CLR | 41 | 37.4 | 87% | 29.89 | 0.0 | |||||||
| 09 | 04:55 | N 2 | 10.00 | Fair | CLR | 39.2 | 37.4 | 93% | 29.89 | 0.0 | |||||||
| 09 | 04:35 | NE 3 | 10.00 | Fair | CLR | 41 | 37.4 | 87% | 29.9 | 0.0 | |||||||
| 09 | 04:15 | N 5 | 10.00 | Fair | CLR | 41 | 37.4 | 87% | 38 | 29.9 | 0.0 | ||||||
| 09 | 03:55 | N 3 | 10.00 | Fair | CLR | 42.8 | 37.4 | 81% | 29.9 | 0.0 | |||||||
| 09 | 03:35 | N 5 | 10.00 | Fair | CLR | 42.8 | 37.4 | 81% | 41 | 29.9 | 0.0 | ||||||
| 09 | 03:15 | N 5 | 10.00 | A Few Clouds | FEW050 | 42.8 | 37.4 | 81% | 41 | 29.9 | 0.0 | ||||||
| 09 | 02:55 | N 5 | 10.00 | A Few Clouds | FEW050 | 42.8 | 37.4 | 81% | 41 | 29.91 | 0.0 | ||||||
| 09 | 02:35 | N 3 | 10.00 | A Few Clouds | FEW050 FEW090 | 44.6 | 37.4 | 76% | 29.91 | 0.0 | |||||||
| 09 | 02:15 | N 5 | 10.00 | Mostly Cloudy | SCT055 BKN090 | 44.6 | 37.4 | 76% | 43 | 29.92 | 0.0 | ||||||
| 09 | 01:55 | N 3 | 10.00 | Partly Cloudy | SCT055 | 44.6 | 37.4 | 62.1 | 42.6 | 76% | 29.93 | 0.0 | |||||
| 09 | 01:35 | Calm | 10.00 | A Few Clouds | FEW055 | 42.8 | 37.4 | 81% | 29.92 | 0.0 | |||||||
| 09 | 01:15 | NE 3 | 10.00 | Fair | CLR | 46.4 | 35.6 | 66% | 29.93 | 0.0 | |||||||
| 09 | 00:55 | SW 2 | 10.00 | Fair | CLR | 50 | 35.6 | 58% | 29.93 | 0.0 | |||||||
| 09 | 00:35 | SW 5 | 10.00 | Fair | CLR | 50 | 35.6 | 58% | 49 | 29.92 | 0.0 | ||||||
| 09 | 00:15 | S 6 | 10.00 | Fair | CLR | 51.8 | 33.8 | 50% | 29.92 | 0.0 | |||||||
| 08 | 23:55 | S 6 | 10.00 | Fair | CLR | 51.8 | 33.8 | 50% | 29.93 | 0.0 | |||||||
| 08 | 23:35 | SW 3 | 10.00 | Fair | CLR | 51.8 | 35.6 | 54% | 29.93 | 0.0 | |||||||
| 08 | 23:15 | S 6 | 10.00 | Fair | CLR | 51.8 | 33.8 | 50% | 29.92 | 0.0 | |||||||
| 08 | 22:55 | S 3 | 10.00 | Fair | CLR | 53.6 | 35.6 | 51% | 29.93 | 0.0 | |||||||
| 08 | 22:35 | S 6 | 10.00 | Fair | CLR | 51.8 | 35.6 | 54% | 29.93 | 0.0 | |||||||
| 08 | 22:15 | S 5 | 10.00 | Fair | CLR | 53.6 | 35.6 | 51% | 29.93 | 0.0 | |||||||
| 08 | 21:55 | S 6 | 10.00 | Fair | CLR | 55.4 | 35.6 | 47% | 29.93 | 0.0 | |||||||
| 08 | 21:35 | S 5 | 10.00 | Fair | CLR | 51.8 | 37.4 | 58% | 29.92 | 0.0 | |||||||
| 08 | 21:15 | S 3 | 10.00 | Fair | CLR | 53.6 | 35.6 | 51% | 29.91 | 0.0 | |||||||
| 08 | 20:55 | S 2 | 10.00 | Fair | CLR | 55.4 | 35.6 | 47% | 29.91 | 0.0 | |||||||
| 08 | 20:15 | S 3 | 10.00 | Fair | CLR | 60.8 | 33.8 | 36% | 29.91 | 0.0 | |||||||
| 08 | 19:55 | S 6 | 10.00 | Fair | CLR | 62.6 | 33.8 | 65.7 | 59.4 | 34% | 29.92 | 0.0 | |||||
| 08 | 19:35 | S 10 | 10.00 | Fair | CLR | 62.6 | 33.8 | 34% | 29.91 | 0.0 | |||||||
| 08 | 19:15 | SW 9 | 10.00 | Fair | CLR | 64.4 | 32 | 30% | 29.91 | 0.0 | |||||||
| 08 | 18:45 | S 6 | 10.00 | Fair | CLR | 64.4 | 32 | 30% | 29.91 | 0.0 | |||||||
| 08 | 17:45 | Calm | 10.00 | Partly Cloudy | SCT070 | 64.4 | 32 | 30% | 29.91 | 0.0 | |||||||
| 08 | 16:45 | W 5 G 20 | 10.00 | Partly Cloudy | SCT075 | 64.4 | 33.8 | 32% | 29.93 | 0.0 | |||||||
| 08 | 15:45 | Calm | 10.00 | Partly Cloudy | SCT080 | 62.6 | 32 | 32% | 29.95 | 0.0 | |||||||
| 08 | 14:45 | SW 12 G 18 | 10.00 | Fair | CLR | 62.6 | 33.8 | 34% | 29.98 | 0.0 | |||||||
| 08 | 13:51 | S 10 G 16 | 10.00 | Fair | CLR | 60.8 | 33.8 | 36% | 30 | 0.0 | |||||||
| 08 | 12:45 | SW 6 | 10.00 | Fair | CLR | 57.2 | 33.8 | 41% | 30.03 | 0.0 | |||||||
| 08 | 11:45 | SW 13 G 18 | 10.00 | Fair | CLR | 57.2 | 32 | 39% | 30.04 | 0.0 | |||||||
| 08 | 10:50 | SW 7 | 10.00 | Fair | CLR | 53.6 | 33.8 | 47% | 30.06 | 0.0 | |||||||
| 08 | 09:47 | SW 9 | 10.00 | Fair | CLR | 48.2 | 35.6 | 62% | 45 | 30.05 | 0.0 | ||||||
| 08 | 08:55 | SW 8 | 10.00 | Fair | CLR | 44.6 | 35.6 | 71% | 41 | 30.06 | 0.0 | ||||||
| 08 | 08:35 | SW 7 | 10.00 | Fair | CLR | 42.8 | 35.6 | 76% | 39 | 30.06 | 0.0 | ||||||
| 08 | 08:15 | SW 5 | 10.00 | Fair | CLR | 41 | 35.6 | 81% | 38 | 30.05 | 0.0 | ||||||
| 08 | 07:55 | Calm | 10.00 | Fair | CLR | 37.4 | 35.6 | 38.8 | 31.3 | 93% | 30.05 | 0.0 | |||||
| 08 | 07:35 | Calm | 10.00 | Fair | CLR | 33.8 | 32 | 93% | 30.04 | 0.0 | |||||||
| 08 | 07:15 | N 1 | 10.00 | Fair | CLR | 32 | 30.2 | 93% | 30.04 | 0.0 | |||||||
| 08 | 06:55 | Calm | 10.00 | Fair | CLR | 35.6 | 32 | 87% | 30.04 | 0.0 | |||||||
| 08 | 06:35 | SW 2 | 10.00 | Fair | CLR | 33.8 | 32 | 93% | 30.03 | 0.0 | |||||||
| 08 | 06:15 | SW 3 | 10.00 | Fair | CLR | 33.8 | 32 | 93% | 30.02 | 0.0 | |||||||
| 08 | 05:55 | S 3 | 10.00 | Fair | CLR | 32 | 30.2 | 93% | 30.01 | 0.0 | |||||||
| 08 | 05:35 | S 3 | 10.00 | Fair | CLR | 33.8 | 32 | 93% | 30 | 0.0 | |||||||
| 08 | 05:15 | S 3 | 10.00 | Fair | CLR | 33.8 | 32 | 93% | 30 | 0.0 | |||||||
| 08 | 04:55 | S 5 | 10.00 | Fair | CLR | 35.6 | 32 | 87% | 32 | 30 | 0.0 | ||||||
| 08 | 04:35 | S 5 | 10.00 | Fair | CLR | 35.6 | 32 | 87% | 32 | 29.99 | 0.0 | ||||||
| 08 | 04:15 | SW 3 | 10.00 | Fair | CLR | 35.6 | 32 | 87% | 29.99 | 0.0 | |||||||
| 08 | 03:55 | S 5 | 10.00 | Fair | CLR | 33.8 | 32 | 93% | 30 | 29.99 | 0.0 | ||||||
| 08 | 03:35 | S 3 | 10.00 | Fair | CLR | 35.6 | 32 | 87% | 29.99 | 0.0 | |||||||
| 08 | 03:15 | S 5 | 10.00 | Fair | CLR | 37.4 | 32 | 81% | 34 | 29.99 | 0.0 | ||||||
| 08 | 02:55 | S 3 | 10.00 | Fair | CLR | 35.6 | 32 | 87% | 29.99 | 0.0 | |||||||
| 08 | 02:35 | S 3 | 10.00 | Fair | CLR | 37.4 | 32 | 81% | 29.99 | 0.0 | |||||||
| 08 | 02:15 | S 3 | 10.00 | Fair | CLR | 37.4 | 32 | 81% | 29.99 | 0.0 | |||||||
| 08 | 01:55 | S 3 | 10.00 | Fair | CLR | 37.4 | 32 | 53.8 | 37.6 | 81% | 29.98 | 0.0 | |||||
| 08 | 01:35 | Vrbl 2 | 10.00 | Fair | CLR | 39.2 | 32 | 75% | 29.98 | 0.0 | |||||||
| 08 | 01:15 | N 5 | 10.00 | Fair | CLR | 42.8 | 30.2 | 61% | 41 | 29.98 | 0.0 | ||||||
| 08 | 00:55 | NW 5 | 10.00 | Fair | CLR | 42.8 | 30.2 | 61% | 41 | 29.98 | 0.0 | ||||||
| 08 | 00:35 | NW 7 | 10.00 | Fair | CLR | 42.8 | 32 | 66% | 39 | 29.98 | 0.0 | ||||||
| 08 | 00:15 | NW 5 | 10.00 | Fair | CLR | 41 | 35.6 | 81% | 38 | 29.97 | 0.0 | ||||||
| 07 | 23:55 | N 2 | 10.00 | Fair | CLR | 42.8 | 33.8 | 71% | 29.97 | 0.0 | |||||||
| 07 | 23:35 | Vrbl 1 | 10.00 | Fair | CLR | 44.6 | 33.8 | 66% | 29.97 | 0.0 | |||||||
| 07 | 23:15 | NW 3 | 10.00 | Fair | CLR | 46.4 | 32 | 57% | 29.96 | 0.0 | |||||||
| 07 | 22:55 | NW 6 | 10.00 | Fair | CLR | 48.2 | 32 | 54% | 46 | 29.96 | 0.0 | ||||||
| 07 | 22:35 | NW 7 | 10.00 | Fair | CLR | 48.2 | 32 | 54% | 46 | 29.95 | 0.0 | ||||||
| 07 | 22:15 | NW 6 | 10.00 | Fair | CLR | 48.2 | 33.8 | 58% | 46 | 29.94 | 0.0 | ||||||
| 07 | 21:55 | NW 5 | 10.00 | Fair | CLR | 48.2 | 33.8 | 58% | 47 | 29.94 | 0.0 | ||||||
| 07 | 21:35 | NW 6 | 10.00 | Fair | CLR | 50 | 33.8 | 54% | 48 | 29.93 | 0.0 | ||||||
| 07 | 21:15 | NW 10 | 10.00 | Fair | CLR | 50 | 33.8 | 54% | 46 | 29.92 | 0.0 | ||||||
| 07 | 20:55 | NW 6 | 10.00 | A Few Clouds | FEW060 | 50 | 33.8 | 54% | 48 | 29.92 | 0.0 | ||||||
| 07 | 20:35 | NW 6 | 10.00 | Partly Cloudy | SCT060 | 51.8 | 33.8 | 50% | 29.91 | 0.0 | |||||||
| 07 | 20:15 | NW 6 | 10.00 | Partly Cloudy | SCT060 | 51.8 | 33.8 | 50% | 29.9 | 0.0 | |||||||
| 07 | 19:55 | W 8 | 10.00 | Fair | CLR | 53.6 | 33.8 | 59.4 | 53.8 | 47% | 29.9 | 0.0 | |||||
| 07 | 19:35 | W 13 | 10.00 | Fair | CLR | 55.4 | 33.8 | 44% | 29.9 | 0.0 | |||||||
| 07 | 19:15 | W 9 | 10.00 | Fair | CLR | 55.4 | 35.6 | 47% | 29.89 | 0.0 | |||||||
| 07 | 18:45 | W 13 G 22 | 10.00 | Partly Cloudy | SCT050 | 57.2 | 35.6 | 44% | 29.88 | 0.0 | |||||||
| 07 | 17:45 | NW 8 G 20 | 10.00 | Mostly Cloudy | BKN049 | 57.2 | 35.6 | 44% | 29.86 | 0.0 | |||||||
| 07 | 16:45 | W 14 G 21 | 10.00 | Partly Cloudy | SCT049 | 59 | 37.4 | 45% | 29.85 | 0.0 | |||||||
| 07 | 15:45 | W 129 G 21 | 10.00 | Mostly Cloudy and Windy | BKN040 | 57.2 | 39.2 | 51% | 29.86 | 0.0 | |||||||
| 07 | 14:45 | NW 18 G 23 | 10.00 | Overcast | OVC041 | 57.2 | 41 | 55% | 29.87 | 0.0 | |||||||
| 07 | 13:45 | W 9 | 10.00 | Overcast | OVC043 | 55.4 | 39.2 | 55% | 29.87 | 0.0 | |||||||
| 07 | 12:45 | W 7 | 10.00 | Overcast | OVC041 | 55.4 | 41 | 59% | 29.89 | 0.0 | |||||||
| 07 | 11:55 | W 5 | 10.00 | Overcast | OVC033 | 53.6 | 39.2 | 58% | 29.9 | 0.0 | |||||||
| 07 | 10:45 | N 5 | 10.00 | Overcast | SCT024 OVC031 | 51.8 | 39.2 | 62% | 29.91 | 0.0 | |||||||
| 07 | 09:51 | N 5 | 10.00 | Overcast | OVC027 | 48.2 | 42.8 | 82% | 47 | 29.93 | 0.0 | ||||||
| 07 | 08:51 | NW 5 | 10.00 | Overcast | BKN018 OVC027 | 48.2 | 42.8 | 82% | 47 | 29.94 | 0.0 | ||||||
| 07 | 08:35 | N 7 | 10.00 | Overcast | OVC016 | 48.2 | 42.8 | 82% | 46 | 29.93 | 0.0 | ||||||
| 07 | 08:15 | N 8 | 10.00 | Overcast | OVC016 | 48.2 | 44.6 | 87% | 45 | 29.92 | 0.0 | ||||||
| 07 | 07:55 | NW 7 | 10.00 | Overcast | OVC014 | 48.2 | 46.4 | 52 | 48.6 | 94% | 46 | 29.92 | 0.0 | ||||
| 07 | 07:35 | W 8 | 10.00 | Overcast | OVC014 | 48.2 | 48.2 | 100% | 45 | 29.92 | 0.0 | ||||||
| 07 | 07:15 | W 5 | 10.00 | Overcast | SCT006 OVC014 | 48.2 | 48.2 | 100% | 47 | 29.9 | 0.0 | ||||||
| 07 | 06:55 | W 6 | 10.00 | Overcast | BKN006 OVC014 | 48.2 | 48.2 | 100% | 46 | 29.9 | 0.0 | ||||||
| 07 | 06:35 | W 7 | 10.00 | Overcast | BKN017 OVC022 | 48.2 | 48.2 | 100% | 46 | 29.9 | 0.0 | ||||||
| 07 | 06:15 | W 7 | 10.00 | Overcast | BKN023 OVC032 | 50 | 48.2 | 94% | 48 | 29.89 | 0.0 | ||||||
| 07 | 05:55 | W 7 | 10.00 | Overcast | FEW025 BKN032 OVC055 | 50 | 48.2 | 94% | 48 | 29.89 | 0.0 | ||||||
| 07 | 05:35 | W 5 | 10.00 | Overcast | BKN032 OVC055 | 50 | 48.2 | 94% | 49 | 29.89 | 0.0 | ||||||
| 07 | 05:15 | W 6 | 10.00 | Overcast | SCT019 BKN032 OVC055 | 50 | 48.2 | 94% | 48 | 29.88 | 0.0 | ||||||
| 07 | 04:55 | W 7 | 10.00 | Overcast | BKN021 OVC030 | 50 | 48.2 | 94% | 48 | 29.9 | 0.0 | ||||||
| 07 | 04:35 | W 7 | 10.00 | Overcast | BKN019 OVC030 | 50 | 48.2 | 94% | 48 | 29.89 | 0.0 | ||||||
| 07 | 04:15 | SW 8 | 10.00 | Overcast | OVC014 | 50 | 48.2 | 94% | 47 | 29.9 | 0.0 | ||||||
| 07 | 03:55 | W 5 | 10.00 | Overcast | BKN014 OVC031 | 51.8 | 48.2 | 88% | 29.89 | 0.0 | |||||||
| 07 | 03:35 | SW 6 | 10.00 | Overcast | SCT016 BKN027 OVC034 | 51.8 | 50 | 94% | 29.9 | 0.0 | |||||||
| 07 | 03:15 | SW 6 | 10.00 | Overcast | OVC027 | 51.8 | 50 | 94% | 29.9 | 0.0 | |||||||
| 07 | 02:55 | SW 6 | 10.00 | Mostly Cloudy | BKN023 BKN030 | 51.8 | 50 | 94% | 29.9 | 0.0 | |||||||
| 07 | 02:35 | W 7 | 10.00 | Mostly Cloudy | FEW024 BKN033 BKN100 | 50 | 50 | 100% | 48 | 29.91 | 0.0 | ||||||
| 07 | 02:15 | W 7 | 10.00 | Overcast | BKN024 OVC033 | 51.8 | 50 | 94% | 29.89 | 0.0 | |||||||
| 07 | 01:55 | W 7 | 10.00 | Overcast | BKN024 OVC030 | 51.8 | 50 | 57 | 51.8 | 94% | 29.91 | 0.0 | |||||
| 07 | 01:35 | W 7 | 10.00 | Overcast | BKN030 BKN037 OVC044 | 51.8 | 50 | 94% | 29.91 | 0.0 | |||||||
| 07 | 01:15 | W 7 | 10.00 | Overcast | SCT020 SCT029 OVC038 | 53.6 | 51.8 | 94% | 29.91 | 0.0 | |||||||
| 07 | 00:55 | W 5 | 10.00 | Overcast | OVC018 | 53.6 | 51.8 | 94% | 29.92 | 0.0 | |||||||
| 07 | 00:35 | W 6 | 10.00 | Overcast | SCT010 OVC016 | 53.6 | 51.8 | 94% | 29.91 | 0.0 | |||||||
| 07 | 00:15 | NW 9 | 10.00 | Overcast | OVC010 | 53.6 | 51.8 | 94% | 29.9 | 0.0 | |||||||
| 06 | 23:55 | W 7 | 10.00 | Overcast | OVC008 | 53.6 | 53.6 | 100% | 29.88 | 0.0 | |||||||
| 06 | 23:35 | SW 1 | 10.00 | Light Rain | OVC008 | 53.6 | 53.6 | 100% | 29.88 | 0.0 | |||||||
| 06 | 23:15 | NW 5 | 10.00 | Overcast | OVC010 | 53.6 | 53.6 | 100% | 29.92 | 0.0 | |||||||
| 06 | 22:55 | SW 6 | 10.00 | Light Rain | BKN010 BKN019 OVC041 | 55.4 | 53.6 | 94% | 29.93 | 0.0 | 0.03 | ||||||
| 06 | 22:35 | SW 7 | 5.00 | Light Rain Fog/Mist | SCT023 BKN038 OVC060 | 55.4 | 53.6 | 94% | 29.92 | 0.0 | |||||||
| 06 | 22:15 | SW 9 | 6.00 | Light Rain Fog/Mist | BKN023 BKN036 OVC060 | 55.4 | 53.6 | 94% | 29.91 | 0.0 | |||||||
| 06 | 21:55 | SW 5 | 10.00 | Light Rain | OVC025 | 55.4 | 53.6 | 94% | 29.91 | 0.0 | |||||||
| 06 | 21:35 | Vrbl 6 | 10.00 | Overcast | OVC023 | 55.4 | 51.8 | 88% | 29.91 | 0.0 | |||||||
| 06 | 21:15 | Calm | 10.00 | Overcast | OVC023 | 55.4 | 53.6 | 94% | 29.9 | 0.0 | |||||||
| 06 | 20:55 | SE 3 | 10.00 | Mostly Cloudy | SCT025 BKN034 BKN042 | 55.4 | 53.6 | 94% | 29.88 | 0.0 | 0.06 | ||||||
| 06 | 20:35 | NW 8 | 1.75 | Light Drizzle Fog/Mist | SCT002 OVC019 | 55.4 | 53.6 | 94% | 29.89 | 0.0 | |||||||
| 06 | 20:15 | W 6 | 10.00 | Light Rain | OVC019 | 55.4 | 53.6 | 94% | 29.88 | 0.0 | |||||||
| 06 | 19:55 | W 6 | 10.00 | Overcast | BKN021 OVC026 | 57.2 | 53.6 | 66.7 | 57 | 88% | 29.87 | 0.0 | |||||
| 06 | 19:35 | W 7 | 10.00 | Light Drizzle | SCT023 BKN028 OVC045 | 57.2 | 53.6 | 88% | 29.87 | 0.0 | |||||||
| 06 | 19:15 | Vrbl 7 | 10.00 | Mostly Cloudy | SCT035 SCT048 BKN075 | 59 | 55.4 | 88% | 29.87 | 0.0 | |||||||
| 06 | 18:45 | W 8 | 10.00 | Overcast | BKN029 OVC044 | 60.8 | 57.2 | 88% | 29.88 | 0.0 | |||||||
| 06 | 17:45 | SW 9 | 4.00 | Light Rain | BKN024 BKN029 OVC034 | 64.4 | 60.8 | 88% | 29.86 | 0.0 | |||||||
| 06 | 16:45 | W 9 | 10.00 | Overcast | SCT024 BKN031 OVC060 | 64.4 | 42.8 | 46% | 29.85 | 0.0 | |||||||
| 06 | 15:45 | W 14 G 23 | 4.00 | Light Rain Haze | SCT028 BKN034 BKN046 | 64.4 | 60.8 | 88% | 29.85 | 0.0 | |||||||
| 06 | 14:45 | SW 14 G 26 | 10.00 | Overcast | BKN020 OVC028 | 66.2 | 59 | 78% | 29.85 | 0.0 | |||||||
| 06 | 13:45 | SW 16 G 24 | 10.00 | Overcast | BKN018 BKN022 OVC034 | 64.4 | 60.8 | 88% | 29.86 | 0.0 | |||||||
| 06 | 11:55 | SW 12 | 10.00 | Mostly Cloudy | BKN028 BKN035 | 62.6 | 59 | 88% | 29.87 | 0.0 | |||||||
| 06 | 11:53 | SW 16 | 10.00 | Overcast | SCT014 SCT019 OVC028 | 62.6 | 57.2 | 83% | 29.88 | 0.0 | |||||||
| 06 | 10:51 | SW 9 | 10.00 | Overcast | SCT016 BKN024 OVC028 | 59 | 57.2 | 94% | 29.88 | 0.0 | |||||||
| 06 | 09:52 | S 5 | 7.00 | Light Rain | OVC022 | 55.4 | 55.4 | 100% | 29.88 | 0.0 | |||||||
| 06 | 08:35 | Calm | 3.00 | Light Rain Fog/Mist | OVC038 | 55.4 | 55.4 | 100% | 29.87 | 0.0 | |||||||
| 06 | 08:15 | Calm | 8.00 | Light Drizzle | FEW028 OVC040 | 55.4 | 53.6 | 94% | 29.86 | 0.0 | |||||||
| Date | Time (edt) | Wind (mph) | Vis. (mi.) | Weather | Sky Cond. | Air | Dwpt | Max. | Min. | Relative Humidity | Wind Chill (°F) | Heat Index (°F) | altimeter (in) | sea level (mb) | 1 hr | 3 hr | 6 hr |
| 6 hour | |||||||||||||||||
| Temperature (ºF) | Pressure | Precipitation (in) | |||||||||||||||